Time,TemperatureF,DewpointF,PressureIn,WindDirection,WindDirectionDegrees,WindSpeedMPH,WindSpeedGustMPH,Humidity,HourlyPrecipIn,Conditions,Clouds,dailyrainin,SoftwareType,DateUTC
2013-05-17 00:05:00,62.8,60.0,29.79,East,91,0.0,2.0,89,0.07,,,0.00,weatherlink.com 1.10,2013-05-17 05:05:00,
2013-05-17 00:20:00,63.2,60.0,29.80,ENE,76,0.0,3.0,89,0.04,,,0.00,weatherlink.com 1.10,2013-05-17 05:20:00,
2013-05-17 00:35:00,63.5,60.0,29.81,ENE,78,0.0,1.0,89,0.03,,,0.00,weatherlink.com 1.10,2013-05-17 05:35:00,
2013-05-17 00:50:00,63.4,60.0,29.82,ENE,78,0.0,2.0,89,0.00,,,0.00,weatherlink.com 1.10,2013-05-17 05:50:00,
2013-05-17 01:05:00,63.2,60.0,29.81,SSE,163,0.0,3.0,89,0.00,,,0.00,weatherlink.com 1.10,2013-05-17 06:05:00,
2013-05-17 01:20:00,63.1,60.0,29.80,East,96,0.0,3.0,89,0.00,,,0.00,weatherlink.com 1.10,2013-05-17 06:20:00,
2013-05-17 01:35:00,62.9,59.0,29.80,East,95,0.0,4.0,88,0.01,,,0.01,weatherlink.com 1.10,2013-05-17 06:35:00,
2013-05-17 01:50:00,62.5,59.0,29.79,ESE,105,2.0,6.0,87,0.01,,,0.01,weatherlink.com 1.10,2013-05-17 06:50:00,
2013-05-17 02:05:00,62.4,59.0,29.80,ESE,105,0.0,2.0,87,0.01,,,0.01,weatherlink.com 1.10,2013-05-17 07:05:00,
2013-05-17 02:20:00,62.3,59.0,29.80,ESE,105,0.0,0.0,88,0.01,,,0.01,weatherlink.com 1.10,2013-05-17 07:20:00,
2013-05-17 02:35:00,62.3,59.0,29.80,ESE,105,0.0,4.0,88,0.00,,,0.01,weatherlink.com 1.10,2013-05-17 07:35:00,
2013-05-17 02:50:00,62.3,59.0,29.81,ESE,105,0.0,1.0,88,0.00,,,0.01,weatherlink.com 1.10,2013-05-17 07:50:00,
2013-05-17 03:05:00,62.2,59.0,29.80,ESE,104,0.0,4.0,88,0.00,,,0.01,weatherlink.com 1.10,2013-05-17 08:05:00,
2013-05-17 03:20:00,62.1,59.0,29.81,ESE,104,0.0,2.0,88,0.00,,,0.01,weatherlink.com 1.10,2013-05-17 08:20:00,
2013-05-17 03:36:00,61.9,58.0,29.83,NNW,345,3.0,12.0,87,0.00,,,0.01,weatherlink.com 1.10,2013-05-17 08:36:00,
2013-05-17 03:51:00,61.5,58.0,29.84,ENE,59,2.0,10.0,87,0.01,,,0.02,weatherlink.com 1.10,2013-05-17 08:51:00,
2013-05-17 04:06:00,61.5,58.0,29.86,NW,319,3.0,9.0,88,0.01,,,0.02,weatherlink.com 1.10,2013-05-17 09:06:00,
2013-05-17 04:21:00,61.3,57.0,29.86,ENE,71,2.0,9.0,87,0.02,,,0.03,weatherlink.com 1.10,2013-05-17 09:21:00,
2013-05-17 04:36:00,61.0,58.0,29.86,NE,36,1.0,7.0,88,0.02,,,0.03,weatherlink.com 1.10,2013-05-17 09:36:00,
2013-05-17 04:51:00,60.5,57.0,29.86,ENE,69,0.0,10.0,89,0.02,,,0.04,weatherlink.com 1.10,2013-05-17 09:51:00,
2013-05-17 05:06:00,60.6,58.0,29.88,NNE,23,10.0,10.0,90,0.02,,,0.04,weatherlink.com 1.10,2013-05-17 10:06:00,
2013-05-17 05:21:00,60.3,57.0,29.89,NNE,32,4.0,12.0,90,0.03,,,0.06,weatherlink.com 1.10,2013-05-17 10:21:00,
2013-05-17 05:36:00,60.1,57.0,29.88,ENE,60,4.0,11.0,90,0.03,,,0.06,weatherlink.com 1.10,2013-05-17 10:36:00,
2013-05-17 05:51:00,59.9,57.0,29.87,ENE,63,0.0,9.0,90,0.02,,,0.06,weatherlink.com 1.10,2013-05-17 10:51:00,
2013-05-17 06:06:00,59.3,56.0,29.86,SE,144,3.0,9.0,90,0.02,,,0.06,weatherlink.com 1.10,2013-05-17 11:06:00,
2013-05-17 06:21:00,59.1,56.0,29.86,ENE,73,5.0,12.0,90,0.00,,,0.06,weatherlink.com 1.10,2013-05-17 11:21:00,
2013-05-17 06:36:00,58.8,56.0,29.87,ENE,76,0.0,7.0,90,0.00,,,0.06,weatherlink.com 1.10,2013-05-17 11:36:00,
2013-05-17 06:51:00,58.6,55.0,29.87,East,97,6.0,12.0,89,0.00,,,0.06,weatherlink.com 1.10,2013-05-17 11:51:00,
2013-05-17 07:06:00,58.6,55.0,29.87,ESE,114,0.0,10.0,89,0.00,,,0.06,weatherlink.com 1.10,2013-05-17 12:06:00,
2013-05-17 07:21:00,58.1,55.0,29.87,ENE,76,1.0,10.0,88,0.00,,,0.06,weatherlink.com 1.10,2013-05-17 12:21:00,
2013-05-17 07:36:00,58.1,55.0,29.88,South,187,1.0,8.0,88,0.00,,,0.06,weatherlink.com 1.10,2013-05-17 12:36:00,
2013-05-17 07:51:00,57.8,55.0,29.88,East,86,1.0,13.0,89,0.00,,,0.06,weatherlink.com 1.10,2013-05-17 12:51:00,
2013-05-17 08:06:00,57.1,54.0,29.88,SE,137,2.0,9.0,88,0.00,,,0.06,weatherlink.com 1.10,2013-05-17 13:06:00,
2013-05-17 08:21:00,56.2,53.0,29.89,ENE,62,0.0,10.0,88,0.01,,,0.07,weatherlink.com 1.10,2013-05-17 13:21:00,
2013-05-17 08:36:00,55.7,52.0,29.90,ESE,109,0.0,10.0,88,0.01,,,0.07,weatherlink.com 1.10,2013-05-17 13:36:00,
2013-05-17 08:51:00,55.6,52.0,29.90,SSE,150,3.0,10.0,88,0.01,,,0.07,weatherlink.com 1.10,2013-05-17 13:51:00,
2013-05-17 09:06:00,55.6,52.0,29.90,SE,134,3.0,9.0,88,0.01,,,0.07,weatherlink.com 1.10,2013-05-17 14:06:00,
2013-05-17 09:21:00,56.0,52.0,29.90,ENE,64,2.0,9.0,87,0.00,,,0.07,weatherlink.com 1.10,2013-05-17 14:21:00,
2013-05-17 09:36:00,57.7,53.0,29.89,East,90,10.0,11.0,84,0.00,,,0.07,weatherlink.com 1.10,2013-05-17 14:36:00,
2013-05-17 09:51:00,57.5,52.0,29.89,NE,40,5.0,10.0,83,0.00,,,0.07,weatherlink.com 1.10,2013-05-17 14:51:00,
2013-05-17 10:06:00,59.2,54.0,29.89,East,95,3.0,9.0,82,0.00,,,0.07,weatherlink.com 1.10,2013-05-17 15:06:00,
2013-05-17 10:21:00,60.6,54.0,29.90,East,85,1.0,10.0,80,0.00,,,0.07,weatherlink.com 1.10,2013-05-17 15:21:00,
2013-05-17 10:36:00,60.9,54.0,29.90,East,89,8.0,11.0,78,0.00,,,0.07,weatherlink.com 1.10,2013-05-17 15:36:00,
2013-05-17 10:51:00,62.2,55.0,29.90,ESE,109,1.0,9.0,78,0.00,,,0.07,weatherlink.com 1.10,2013-05-17 15:51:00,
2013-05-17 11:06:00,62.9,55.0,29.90,ESE,117,6.0,8.0,75,0.00,,,0.07,weatherlink.com 1.10,2013-05-17 16:06:00,
2013-05-17 11:21:00,62.4,55.0,29.90,ESE,121,0.0,8.0,77,0.00,,,0.07,weatherlink.com 1.10,2013-05-17 16:21:00,
2013-05-17 11:36:00,62.1,56.0,29.90,West,278,0.0,9.0,79,0.00,,,0.07,weatherlink.com 1.10,2013-05-17 16:36:00,
2013-05-17 11:51:00,62.2,56.0,29.90,SE,142,0.0,6.0,81,0.00,,,0.07,weatherlink.com 1.10,2013-05-17 16:51:00,
2013-05-17 12:06:00,64.2,58.0,29.90,ENE,78,0.0,5.0,80,0.00,,,0.07,weatherlink.com 1.10,2013-05-17 17:06:00,
2013-05-17 12:22:00,66.6,59.0,29.90,ESE,106,0.0,8.0,77,0.00,,,0.07,weatherlink.com 1.10,2013-05-17 17:22:00,
2013-05-17 12:37:00,67.2,60.0,29.90,ESE,113,1.0,6.0,77,0.00,,,0.07,weatherlink.com 1.10,2013-05-17 17:37:00,
2013-05-17 12:52:00,68.0,60.0,29.91,SSE,153,0.0,5.0,76,0.00,,,0.07,weatherlink.com 1.10,2013-05-17 17:52:00,
2013-05-17 13:07:00,67.7,60.0,29.90,SSE,153,1.0,2.0,76,0.00,,,0.07,weatherlink.com 1.10,2013-05-17 18:07:00,
2013-05-17 13:22:00,68.0,61.0,29.89,SE,146,0.0,3.0,78,0.00,,,0.07,weatherlink.com 1.10,2013-05-17 18:22:00,
2013-05-17 13:37:00,67.9,62.0,29.89,East,84,0.0,7.0,80,0.00,,,0.07,weatherlink.com 1.10,2013-05-17 18:37:00,
2013-05-17 13:52:00,69.1,62.0,29.88,East,97,0.0,7.0,78,0.01,,,0.08,weatherlink.com 1.10,2013-05-17 18:52:00,
2013-05-17 14:07:00,71.9,63.0,29.88,East,84,0.0,8.0,73,0.01,,,0.08,weatherlink.com 1.10,2013-05-17 19:07:00,
2013-05-17 14:22:00,73.5,61.0,29.88,East,84,0.0,7.0,66,0.01,,,0.08,weatherlink.com 1.10,2013-05-17 19:22:00,
2013-05-17 14:37:00,68.8,62.0,29.90,WSW,248,0.0,10.0,78,0.21,,,0.29,weatherlink.com 1.10,2013-05-17 19:37:00,
2013-05-17 14:52:00,64.2,60.0,29.89,South,179,0.0,6.0,86,0.75,,,0.83,weatherlink.com 1.10,2013-05-17 19:52:00,
2013-05-17 15:07:00,64.2,61.0,29.89,East,99,0.0,3.0,89,0.78,,,0.86,weatherlink.com 1.10,2013-05-17 20:07:00,
2013-05-17 15:22:00,64.0,61.0,29.88,East,88,0.0,2.0,89,0.78,,,0.86,weatherlink.com 1.10,2013-05-17 20:22:00,
2013-05-17 15:37:00,63.8,61.0,29.87,ENE,74,2.0,5.0,90,0.54,,,0.86,weatherlink.com 1.10,2013-05-17 20:37:00,
2013-05-17 15:52:00,63.9,61.0,29.87,ESE,102,0.0,3.0,89,0.02,,,0.86,weatherlink.com 1.10,2013-05-17 20:52:00,
2013-05-17 16:07:00,64.9,62.0,29.87,ESE,102,1.0,2.0,89,0.00,,,0.86,weatherlink.com 1.10,2013-05-17 21:07:00,
2013-05-17 16:22:00,65.7,62.0,29.87,ESE,114,0.0,6.0,89,0.00,,,0.86,weatherlink.com 1.10,2013-05-17 21:22:00,
2013-05-17 16:37:00,66.7,63.0,29.86,East,89,0.0,4.0,89,0.00,,,0.86,weatherlink.com 1.10,2013-05-17 21:37:00,
2013-05-17 16:52:00,67.5,64.0,29.87,ENE,78,2.0,9.0,87,0.00,,,0.86,weatherlink.com 1.10,2013-05-17 21:52:00,
2013-05-17 17:07:00,69.1,63.0,29.87,ENE,77,0.0,5.0,81,0.00,,,0.86,weatherlink.com 1.10,2013-05-17 22:07:00,
2013-05-17 17:22:00,69.2,62.0,29.87,East,92,0.0,4.0,78,0.00,,,0.86,weatherlink.com 1.10,2013-05-17 22:22:00,
2013-05-17 17:37:00,68.7,62.0,29.87,East,91,0.0,4.0,80,0.00,,,0.86,weatherlink.com 1.10,2013-05-17 22:37:00,
2013-05-17 17:52:00,68.5,63.0,29.86,East,93,4.0,4.0,81,0.00,,,0.86,weatherlink.com 1.10,2013-05-17 22:52:00,
2013-05-17 18:07:00,68.7,63.0,29.87,East,86,0.0,6.0,81,0.00,,,0.86,weatherlink.com 1.10,2013-05-17 23:07:00,
2013-05-17 18:22:00,68.8,62.0,29.86,East,84,1.0,6.0,78,0.00,,,0.86,weatherlink.com 1.10,2013-05-17 23:22:00,
2013-05-17 18:37:00,68.8,62.0,29.87,East,84,0.0,0.0,79,0.00,,,0.86,weatherlink.com 1.10,2013-05-17 23:37:00,
2013-05-17 18:52:00,68.6,63.0,29.86,East,83,0.0,2.0,82,0.00,,,0.86,weatherlink.com 1.10,2013-05-17 23:52:00,
2013-05-17 19:07:00,68.4,63.0,29.87,ESE,122,0.0,8.0,83,0.00,,,0.86,weatherlink.com 1.10,2013-05-18 00:07:00,
2013-05-17 19:22:00,68.0,63.0,29.87,ESE,123,0.0,4.0,83,0.00,,,0.86,weatherlink.com 1.10,2013-05-18 00:22:00,
2013-05-17 19:37:00,67.6,63.0,29.87,ESE,113,0.0,4.0,84,0.00,,,0.86,weatherlink.com 1.10,2013-05-18 00:37:00,
2013-05-17 19:52:00,67.3,62.0,29.88,ESE,113,1.0,2.0,84,0.00,,,0.86,weatherlink.com 1.10,2013-05-18 00:52:00,
2013-05-17 20:07:00,66.9,62.0,29.88,ESE,113,0.0,2.0,84,0.00,,,0.86,weatherlink.com 1.10,2013-05-18 01:07:00,
2013-05-17 20:22:00,66.3,62.0,29.87,ESE,113,0.0,1.0,85,0.00,,,0.86,weatherlink.com 1.10,2013-05-18 01:22:00,
2013-05-17 20:37:00,65.9,61.0,29.86,ESE,113,2.0,4.0,85,0.00,,,0.86,weatherlink.com 1.10,2013-05-18 01:37:00,
2013-05-17 20:52:00,65.5,61.0,29.85,ESE,113,0.0,4.0,85,0.00,,,0.86,weatherlink.com 1.10,2013-05-18 01:52:00,
2013-05-17 21:07:00,65.2,61.0,29.85,ESE,103,0.0,6.0,86,0.00,,,0.86,weatherlink.com 1.10,2013-05-18 02:07:00,
2013-05-17 21:22:00,65.0,61.0,29.86,East,88,0.0,4.0,86,0.00,,,0.86,weatherlink.com 1.10,2013-05-18 02:22:00,
2013-05-17 21:37:00,64.9,61.0,29.88,East,88,0.0,2.0,86,0.00,,,0.86,weatherlink.com 1.10,2013-05-18 02:37:00,
2013-05-17 21:52:00,64.7,61.0,29.88,East,88,0.0,1.0,86,0.00,,,0.86,weatherlink.com 1.10,2013-05-18 02:52:00,
2013-05-17 22:07:00,64.5,60.0,29.90,East,88,0.0,0.0,86,0.00,,,0.86,weatherlink.com 1.10,2013-05-18 03:07:00,
2013-05-17 22:22:00,64.3,60.0,29.91,East,88,0.0,0.0,87,0.00,,,0.86,weatherlink.com 1.10,2013-05-18 03:22:00,
2013-05-17 22:37:00,63.8,60.0,29.91,East,88,0.0,0.0,87,0.00,,,0.86,weatherlink.com 1.10,2013-05-18 03:37:00,
2013-05-17 22:52:00,63.2,60.0,29.92,East,88,0.0,1.0,88,0.00,,,0.86,weatherlink.com 1.10,2013-05-18 03:52:00,
2013-05-17 23:07:00,63.1,60.0,29.92,East,88,1.0,2.0,88,0.00,,,0.86,weatherlink.com 1.10,2013-05-18 04:07:00,
2013-05-17 23:22:00,63.2,59.0,29.92,East,88,0.0,2.0,87,0.00,,,0.86,weatherlink.com 1.10,2013-05-18 04:22:00,
2013-05-17 23:37:00,63.2,59.0,29.92,East,88,0.0,1.0,86,0.00,,,0.86,weatherlink.com 1.10,2013-05-18 04:37:00,
2013-05-17 23:52:00,63.6,58.0,29.92,East,94,0.0,4.0,83,0.00,,,0.86,weatherlink.com 1.10,2013-05-18 04:52:00,